• en Suisse
  • Liste des pays
  • À 7 jours
  • Température de l'eau
  • Carte satellitaire
  • Carte météo
  • Widgets météo
  • user-avatar
    Se connecter

    Météo par heure à Moshki

    Ce jour, 22 Juin, Vendredi

    Heure Température Précipitation Vent Pression Humidité
    00:00 +17°C° 0,8 mm 5 m/s 742 mmHg 94%
    01:00 +17°C° 0,8 mm 5 m/s 742 mmHg 95%
    02:00 +17°C° 0,8 mm 5 m/s 741 mmHg 96%
    03:00 +16°C° 0,5 mm 5 m/s 741 mmHg 95%
    04:00 +15°C° 0,5 mm 5 m/s 741 mmHg 95%
    05:00 +14°C° 0,5 mm 5 m/s 742 mmHg 95%
    06:00 +14°C° 0 mm 5 m/s 742 mmHg 91%
    07:00 +14°C° 0 mm 5 m/s 742 mmHg 87%
    08:00 +14°C° 0 mm 5 m/s 743 mmHg 82%
    09:00 +15°C° 0 mm 6 m/s 743 mmHg 71%
    10:00 +16°C° 0 mm 6 m/s 743 mmHg 61%
    11:00 +18°C° 0 mm 7 m/s 744 mmHg 50%
    12:00 +18°C° 0 mm 7 m/s 743 mmHg 46%
    13:00 +20°C° 0 mm 7 m/s 743 mmHg 43%
    14:00 +20°C° 0 mm 8 m/s 743 mmHg 39%
    15:00 +20°C° 0 mm 8 m/s 744 mmHg 42%
    16:00 +18°C° 0 mm 8 m/s 744 mmHg 45%
    17:00 +17°C° 0 mm 8 m/s 744 mmHg 48%
    18:00 +16°C° 0 mm 7 m/s 745 mmHg 53%
    19:00 +15°C° 0 mm 7 m/s 745 mmHg 58%
    20:00 +13°C° 0 mm 6 m/s 746 mmHg 63%
    21:00 +11°C° 0 mm 6 m/s 747 mmHg 67%
    22:00 +10°C° 0 mm 5 m/s 747 mmHg 71%
    23:00 +10°C° 0 mm 4 m/s 748 mmHg 75%

    Demain, 23 Juin, Samedi

    Heure Température Précipitation Vent Pression Humidité
    00:00 +10°C° 0 mm 4 m/s 748 mmHg 78%
    01:00 +8°C° 0 mm 4 m/s 749 mmHg 81%
    02:00 +8°C° 0 mm 4 m/s 749 mmHg 84%
    03:00 +8°C° 0 mm 4 m/s 749 mmHg 82%
    04:00 +8°C° 0 mm 4 m/s 750 mmHg 81%
    05:00 +10°C° 0 mm 4 m/s 750 mmHg 79%
    06:00 +11°C° 0 mm 4 m/s 750 mmHg 72%
    07:00 +13°C° 0 mm 4 m/s 750 mmHg 65%
    08:00 +15°C° 0 mm 4 m/s 750 mmHg 58%
    09:00 +17°C° 0 mm 4 m/s 750 mmHg 53%
    10:00 +18°C° 0 mm 4 m/s 750 mmHg 48%
    11:00 +19°C° 0 mm 3 m/s 750 mmHg 43%
    12:00 +20°C° 0 mm 3 m/s 750 mmHg 42%
    13:00 +20°C° 0 mm 3 m/s 750 mmHg 41%
    14:00 +20°C° 0 mm 3 m/s 750 mmHg 39%
    15:00 +20°C° 0 mm 2 m/s 750 mmHg 42%
    16:00 +20°C° 0 mm 2 m/s 750 mmHg 44%
    17:00 +20°C° 0 mm 2 m/s 750 mmHg 46%
    18:00 +19°C° 0 mm 2 m/s 750 mmHg 54%
    19:00 +18°C° 0 mm 1 m/s 750 mmHg 61%
    20:00 +16°C° 0 mm 1 m/s 750 mmHg 69%
    21:00 +15°C° 0 mm 1 m/s 750 mmHg 73%
    22:00 +13°C° 0 mm 1 m/s 750 mmHg 78%
    23:00 +12°C° 0 mm 1 m/s 750 mmHg 82%

    Après-demain, 24 Juin, Dimanche

    Heure Température Précipitation Vent Pression Humidité
    00:00 +11°C° 0 mm 1 m/s 750 mmHg 83%
    01:00 +11°C° 0 mm 1 m/s 750 mmHg 85%
    02:00 +9°C° 0 mm 2 m/s 750 mmHg 86%
    03:00 +10°C° 0 mm 2 m/s 750 mmHg 84%
    04:00 +10°C° 0 mm 2 m/s 750 mmHg 83%
    05:00 +11°C° 0 mm 3 m/s 750 mmHg 81%
    06:00 +12°C° 0 mm 3 m/s 750 mmHg 74%
    07:00 +14°C° 0 mm 3 m/s 750 mmHg 68%
    08:00 +16°C° 0 mm 3 m/s 750 mmHg 62%
    09:00 +17°C° 0 mm 3 m/s 750 mmHg 58%
    10:00 +18°C° 0 mm 3 m/s 749 mmHg 54%
    11:00 +19°C° 0 mm 4 m/s 749 mmHg 50%
    12:00 +18°C° 0,3 mm 3 m/s 749 mmHg 57%
    13:00 +17°C° 0,3 mm 3 m/s 749 mmHg 63%
    14:00 +17°C° 0,3 mm 3 m/s 749 mmHg 69%
    15:00 +14°C° 0,6 mm 3 m/s 749 mmHg 76%
    16:00 +13°C° 0,6 mm 3 m/s 749 mmHg 83%
    17:00 +13°C° 0,6 mm 2 m/s 749 mmHg 91%
    18:00 +12°C° 1,1 mm 3 m/s 749 mmHg 92%
    19:00 +11°C° 1,1 mm 3 m/s 749 mmHg 93%
    20:00 +11°C° 1,1 mm 3 m/s 749 mmHg 94%
    21:00 +11°C° 1,5 mm 3 m/s 749 mmHg 94%
    22:00 +11°C° 1,5 mm 4 m/s 749 mmHg 95%
    23:00 +11°C° 1,5 mm 4 m/s 749 mmHg 95%

    25 Juin, Lundi

    Heure Température Précipitation Vent Pression Humidité
    00:00 +11°C° 0,8 mm 4 m/s 750 mmHg 95%
    01:00 +11°C° 0,8 mm 4 m/s 750 mmHg 96%
    02:00 +11°C° 0,8 mm 4 m/s 750 mmHg 96%
    03:00 +11°C° 1 mm 4 m/s 750 mmHg 96%
    04:00 +11°C° 1 mm 4 m/s 750 mmHg 97%
    05:00 +11°C° 1 mm 3 m/s 751 mmHg 97%
    06:00 +11°C° 0,9 mm 3 m/s 751 mmHg 97%
    07:00 +11°C° 0,9 mm 3 m/s 751 mmHg 97%
    08:00 +11°C° 0,9 mm 3 m/s 752 mmHg 97%
    09:00 +12°C° 0,8 mm 3 m/s 752 mmHg 96%
    10:00 +12°C° 0,8 mm 3 m/s 752 mmHg 96%
    11:00 +12°C° 0,8 mm 3 m/s 753 mmHg 95%
    12:00 +13°C° 0,7 mm 3 m/s 753 mmHg 94%
    13:00 +14°C° 0,7 mm 2 m/s 753 mmHg 93%
    14:00 +15°C° 0,7 mm 2 m/s 754 mmHg 92%
    15:00 +15°C° 0,3 mm 2 m/s 754 mmHg 91%
    16:00 +15°C° 0,3 mm 2 m/s 754 mmHg 90%
    17:00 +16°C° 0,3 mm 1 m/s 754 mmHg 88%
    18:00 +15°C° 0,2 mm 1 m/s 754 mmHg 91%
    19:00 +15°C° 0,2 mm 1 m/s 755 mmHg 93%
    20:00 +14°C° 0,2 mm 1 m/s 755 mmHg 95%
    21:00 +14°C° 0,2 mm 1 m/s 755 mmHg 95%
    22:00 +13°C° 0,2 mm 1 m/s 755 mmHg 96%
    23:00 +12°C° 0,2 mm 1 m/s 755 mmHg 96%

    26 Juin, Mardi

    Heure Température Précipitation Vent Pression Humidité
    00:00 +12°C° 0,1 mm 1 m/s 755 mmHg 96%
    01:00 +12°C° 0,1 mm 1 m/s 755 mmHg 96%
    02:00 +11°C° 0,1 mm 1 m/s 756 mmHg 96%
    03:00 +12°C° 0 mm 1 m/s 756 mmHg 96%
    04:00 +12°C° 0 mm 1 m/s 756 mmHg 96%
    05:00 +12°C° 0 mm 1 m/s 756 mmHg 95%
    06:00 +14°C° 0 mm 1 m/s 756 mmHg 91%
    07:00 +15°C° 0 mm 1 m/s 756 mmHg 86%
    08:00 +16°C° 0 mm 1 m/s 756 mmHg 81%
    09:00 +18°C° 0,2 mm 1 m/s 756 mmHg 77%
    10:00 +20°C° 0,2 mm 1 m/s 756 mmHg 73%
    11:00 +21°C° 0,2 mm 1 m/s 756 mmHg 68%
    12:00 +21°C° 0,5 mm 1 m/s 756 mmHg 69%
    13:00 +21°C° 0,5 mm 1 m/s 756 mmHg 69%
    14:00 +21°C° 0,5 mm 1 m/s 756 mmHg 69%
    15:00 +20°C° 0,5 mm 2 m/s 756 mmHg 71%
    16:00 +20°C° 0,5 mm 2 m/s 756 mmHg 74%
    17:00 +20°C° 0,5 mm 2 m/s 756 mmHg 76%
    18:00 +19°C° 0,4 mm 2 m/s 756 mmHg 80%
    19:00 +18°C° 0,4 mm 2 m/s 756 mmHg 85%
    20:00 +17°C° 0,4 mm 2 m/s 756 mmHg 89%
    21:00 +16°C° 0 mm 2 m/s 756 mmHg 91%
    22:00 +15°C° 0 mm 2 m/s 756 mmHg 93%
    23:00 +13°C° 0 mm 2 m/s 756 mmHg 95%

    27 Juin, Mercredi

    Heure Température Précipitation Vent Pression Humidité
    00:00 +13°C° 0 mm 1 m/s 756 mmHg 95%
    01:00 +13°C° 0 mm 1 m/s 756 mmHg 95%
    02:00 +12°C° 0 mm 1 m/s 757 mmHg 96%
    03:00 +13°C° 0 mm 1 m/s 757 mmHg 96%
    04:00 +13°C° 0 mm 1 m/s 757 mmHg 95%
    05:00 +13°C° 0 mm 1 m/s 757 mmHg 95%
    06:00 +15°C° 0 mm 1 m/s 757 mmHg 90%
    07:00 +18°C° 0 mm 1 m/s 757 mmHg 85%
    08:00 +19°C° 0 mm 1 m/s 757 mmHg 80%
    09:00 +20°C° 0,3 mm 1 m/s 757 mmHg 74%
    10:00 +21°C° 0,3 mm 1 m/s 757 mmHg 68%
    11:00 +22°C° 0,3 mm 1 m/s 757 mmHg 63%
    12:00 +22°C° 0,6 mm 1 m/s 757 mmHg 64%
    13:00 +23°C° 0,6 mm 1 m/s 757 mmHg 65%
    14:00 +23°C° 0,6 mm 1 m/s 757 mmHg 66%
    15:00 +23°C° 0,6 mm 1 m/s 757 mmHg 68%
    16:00 +22°C° 0,6 mm 1 m/s 757 mmHg 71%
    17:00 +21°C° 0,6 mm 2 m/s 757 mmHg 73%
    18:00 +21°C° 0,1 mm 1 m/s 757 mmHg 77%
    19:00 +20°C° 0,1 mm 1 m/s 758 mmHg 81%
    20:00 +19°C° 0,1 mm 1 m/s 758 mmHg 85%
    21:00 +18°C° 0 mm 1 m/s 758 mmHg 88%
    22:00 +16°C° 0 mm 1 m/s 758 mmHg 90%
    23:00 +14°C° 0 mm 1 m/s 758 mmHg 92%
    Voir plus